Edwards AFB, CA

1:03 AM PDT on May 27, 2017 (GMT -0700)
Edwards Air Force Base

Weather History for KEDW - September, 2013

Change the Weather History Date:

Wednesday, September 4, 2013

  Actual Average Record
Temperature  
Mean Temperature 84 °F -  
Max Temperature 99 °F 92 °F 102 °F (2010)
Min Temperature 70 °F 60 °F 48 °F (2004)
Cooling Degree Days 20    
Growing Degree Days 34 (Base 50)    
Moisture  
Dew Point 54 °F    
Average Humidity 37    
Maximum Humidity 56    
Minimum Humidity 20    
Precipitation  
Precipitation 0.01 in - - ()
Sea Level Pressure  
Sea Level Pressure 29.90 in    
Wind  
Wind Speed 8 mph (SSE)    
Max Wind Speed 28 mph    
Max Gust Speed 37 mph    
Visibility 10 miles    
Events Rain , Thunderstorm    
Averages and records for this station are not official NWS values.
T = Trace of Precipitation, MM = Missing Value Source: NWS Daily Summary

Daily Weather History Graph

Daily Weather History Graph

Search for Another Location

Airport or City:

Trip Planner

Search our weather history database for the weather conditions in past years. The results will help you decide how hot, cold, wet, or windy it might be!

Date:

Astronomy

Sep. 04, 2013 Rise Set
Actual Time 6:26 AM PDT 7:13 PM PDT
Civil Twilight 6:01 AM PDT 7:39 PM PDT
Nautical Twilight 5:30 AM PDT 8:09 PM PDT
Astronomical Twilight 4:59 AM PDT 8:40 PM PDT
Moon 5:43 AM PDT (9/4) 6:37 PM PDT (9/4)
Length of Visible Light 13h 38m
Length of Day
12h 46m
Waning Crescent, 1% of the Moon is Illuminated
Sep 4
Waning Crescent
Sep 5
New
Sep 12
First Quarter
Sep 19
Full
Sep 26
Last Quarter

Hourly Weather History & Observations

Time (PDT) Temp. Heat Index Dew Point Humidity Pressure Visibility Wind Dir Wind Speed Gust Speed Precip Events Conditions
12:58 AM 76.5 °F - 53.4 °F 45% 29.89 in 10.0 mi SW 4.6 mph - N/A   Clear
1:58 AM 74.7 °F - 52.3 °F 46% 29.97 in 10.0 mi SSW 9.2 mph - N/A   Clear
2:58 AM 75.6 °F - 52.0 °F 44% 29.97 in 10.0 mi SSW 4.6 mph - N/A   Clear
3:58 AM 73.2 °F - 51.6 °F 47% 29.97 in 10.0 mi South 3.5 mph - N/A   Clear
4:58 AM 71.6 °F - 53.2 °F 52% 29.89 in 10.0 mi South 6.9 mph - N/A   Clear
5:58 AM 70.9 °F - 52.9 °F 53% 29.90 in 40.0 mi WSW 8.1 mph - N/A   Partly Cloudy
6:58 AM 70.3 °F - 52.7 °F 53% 29.93 in 50.0 mi WSW 3.5 mph - N/A   Partly Cloudy
7:58 AM 76.1 °F - 54.3 °F 47% 29.93 in 70.0 mi WSW 8.1 mph - N/A   Partly Cloudy
8:58 AM 79.7 °F - 54.5 °F 42% 29.95 in 80.0 mi SE 8.1 mph - N/A   Partly Cloudy
9:58 AM 83.8 °F 82.4 °F 53.1 °F 35% 29.95 in 80.0 mi ESE 3.5 mph - N/A   Partly Cloudy
10:58 AM 88.7 °F - 51.8 °F 28% 29.94 in 80.0 mi NE 4.6 mph - N/A   Partly Cloudy
11:58 AM 91.8 °F - 52.5 °F 26% 29.91 in 70.0 mi Variable 3.5 mph - N/A   Partly Cloudy
12:58 PM 95.2 °F - 51.8 °F 23% 29.89 in 60.0 mi Variable 4.6 mph - N/A   Partly Cloudy
1:58 PM 97.5 °F - 52.2 °F 22% 29.87 in 50.0 mi Variable 4.6 mph - N/A   Partly Cloudy
2:58 PM 98.2 °F - 51.6 °F 21% 29.83 in 60.0 mi SSE 9.2 mph - N/A   Scattered Clouds
3:50 PM 98.6 °F - 51.8 °F 21% 29.90 in 60.0 mi East 4.6 mph - N/A Thunderstorm Thunderstorm
3:54 PM 98.6 °F - 51.8 °F 21% 29.89 in 60.0 mi SE 17.3 mph 23.0 mph N/A Thunderstorm Thunderstorm
3:59 PM 99.5 °F - 51.3 °F 20% 29.81 in - SSE 27.6 mph 36.8 mph N/A Thunderstorm Thunderstorm
4:17 PM 93.2 °F 91.9 °F 57.2 °F 30% 29.89 in 60.0 mi ESE 23.0 mph 31.1 mph N/A Thunderstorm Mostly Cloudy
4:44 PM 87.8 °F 86.5 °F 57.2 °F 35% 29.91 in 60.0 mi East 20.7 mph 28.8 mph N/A Rain , Thunderstorm Light Rain Showers
4:58 PM 84.7 °F 87.6 °F 67.5 °F 56% 29.85 in 60.0 mi ENE 20.7 mph 28.8 mph 0.01 in Thunderstorm Thunderstorm
5:25 PM 86.0 °F 86.6 °F 62.6 °F 45% 29.92 in 60.0 mi ESE 12.7 mph - N/A   Mostly Cloudy
5:30 PM 86.0 °F 86.6 °F 62.6 °F 45% 29.92 in 10.0 mi East 11.5 mph - N/A   Scattered Clouds
5:58 PM 87.8 °F 87.9 °F 61.5 °F 41% 29.85 in 70.0 mi ESE 11.5 mph - N/A   Mostly Cloudy
6:58 PM 89.6 °F 88.9 °F 59.7 °F 36% 29.84 in 70.0 mi SSE 5.8 mph - N/A   Partly Cloudy
7:58 PM 86.4 °F 85.4 °F 58.1 °F 38% 29.86 in 50.0 mi SSW 8.1 mph - N/A   Partly Cloudy
8:58 PM 86.9 °F - 51.6 °F 30% 29.88 in 50.0 mi WSW 11.5 mph - N/A   Partly Cloudy
9:58 PM 85.1 °F - 50.0 °F 30% 29.88 in 50.0 mi WSW 13.8 mph - N/A   Partly Cloudy
10:58 PM 83.7 °F - 49.6 °F 31% 29.88 in 10.0 mi SW 6.9 mph - N/A   Clear
11:58 PM 80.2 °F - 47.5 °F 32% 29.88 in 10.0 mi SW 6.9 mph - N/A   Clear